User: anonymous   Login
Location: Twentynine Palms Airport
(34.1316°N, 115.9458°W)
Time: 17:05:16
(UTC-08:00)
Language:

Oscar 19 - Orbit

View from above orbital plane
View from above orbital plane
View from above satellite
View from above satellite

Ground track
Ground track

The orbit data is extracted from the following two-line orbital elements,

1 20442U 90005G   14351.34458141  .00000157  00000-0  73720-4 0  1291
2 20442 098.4967 285.4797 0011018 331.3016 028.7560 14.32650715300901
Epoch (UTC): 17 December 2014 08:16:11
Eccentricity: 0.0011018
inclination: 98.4967°
perigee height: 775 km
apogee height: 791 km
right ascension of ascending node: 285.4797°
argument of perigee: 331.3016°
revolutions per day: 14.32650715
mean anomaly at epoch: 28.7560°
orbit number at epoch: 30090

The dashed part of the orbit path shows where the satellite is in the earth's shadow,  

DLR